Regional Weather Roundup
Issued by NWS Kansas City/Pleasant Hill, MO

Home | Current Version | Previous Version | Text Only | Print | Product List | Glossary On
Versions: 1 2 3 4 5 6 7 8 9 10 11 12 13 14 15 16 17 18 19 20 21 22 23 24 25 26 27 28
000
ASUS43 KEAX 240210
RWREAX

WEATHER ROUNDUP FOR EASTERN KANSAS AND NORTHWEST MISSOURI
NATIONAL WEATHER SERVICE KANSAS CITY/PLEASANT HILL MO
900 PM CDT FRI JUN 23 2017

KSZ040-057-103>105-MOZ028-029-037-043-240300-
...KANSAS CITY METROPOLITAN AREA...

CITY           SKY/WX    TMP DP  RH WIND       PRES   REMARKS
K.C. INTL      PTCLDY    68  54  60 NW8       30.03R
K.C. DOWNTOWN  CLEAR     73  54  51 NW9       30.02R
LEES SUMMIT    CLEAR     72  54  53 NW10      30.03R
OLATHE - IXD   CLEAR     66  56  70 N7        30.04R
OLATHE - OJC   CLEAR     71  54  54 NW8       30.04R
LAWRENCE       CLEAR     70  58  65 N6        30.03R

$$

MOZ001>008-011>017-020>025-030>033-038>040-044>046-053-054-240300-
...NORTHERN AND CENTRAL MISSOURI...

CITY           SKY/WX    TMP DP  RH WIND       PRES   REMARKS
ST. JOSEPH     CLEAR     67  55  65 NW6       30.03R
MOSBY          PTCLDY    70  54  56 N6        30.02R HAZE
WARRENSBURG    CLEAR     72  50  46 NW6       30.00R
WHITEMAN AFB   CLEAR     72  51  47 NW13      29.98R
CLINTON        CLEAR     72  54  53 NW7       30.00R
SEDALIA        CLEAR     72  54  53 NW9       29.99R
WARSAW         NOT AVBL
CHILLICOTHE      N/A     70  55  59 CALM      30.01R
KIRKSVILLE     CLEAR     67  55  65 NW7       29.97R

$$

MOZ041-047>049-056>058-063>065-088>090-097-240300-
...EASTERN AND SOUTHERN MISSOURI...

CITY           SKY/WX    TMP DP  RH WIND       PRES   REMARKS
ST. LOUIS INTL MOCLDY    79  57  46 NW8       29.89R
SPIRIT OF STL  PTCLDY    71  63  75 W6        29.89R
COLUMBIA       CLEAR     73  51  46 NW12      29.96R
JEFFERSON CITY CLEAR     76  49  38 NW7       29.94R
ROLLA          CLOUDY    70  59  68 NW6       29.94R
OSAGE BEACH    CLEAR     70  59  68 NW3       29.97R
SPRINGFIELD    CLEAR     70  60  70 N7        29.98R
BRANSON        MOCLDY    70  68  94 CALM      29.99R
JOPLIN         CLEAR     72  63  73 N6        29.99R
WEST PLAINS    CLOUDY    69  59  70 N5        29.97R

$$

IAZ060-094-KSZ022-034>040-054-083-096-NEZ052-066-093-240300-
...KANSAS...SOUTHEAST NEBRASKA AND IOWA...

CITY           SKY/WX    TMP DP  RH WIND       PRES   REMARKS
TOPEKA         CLEAR     70  58  65 N6        30.03R
MANHATTAN      CLEAR     73  53  49 CALM      30.05R
EMPORIA        CLOUDY    70  53  54 N7        30.05R
CHANUTE        CLEAR     73  50  44 N7        30.02R
WICHITA        CLOUDY    74  49  41 N6        30.04R
OMAHA          PTCLDY    68  50  52 NW9       30.03R
LINCOLN        PTCLDY    69  49  48 N7        30.07R
FALLS CITY     CLEAR     68  54  60 N6        30.03R
LAMONI         CLEAR     65  52  62 NW7       30.00R
DES MOINES     PTCLDY    67  51  56 NW6       29.97R

$$





USA.gov is the U.S. government's official web portal to all federal, state and local government web resources and services.